Flag for Norway Weather past 2 weeks in Hammerfest, Norway

Now
43 °F

Drizzle. Broken clouds.


Feels Like: 37 °F
Forecast: 41 / 45 °F
Wind: 9 mph from North

Location: Hammerfest

Current Time: Jul 4, 2015 at 1:51:34 PM

Latest Report: Jul 4, 2015 at 12:50 PM


Visibility: N/A

Pressure: 30.12 "Hg

Humidity: 87%

Dew point: 39 °F

Location of HammerfestLocation

Historic Weather in Hammerfest — Graph

°F

Hammerfest temperature yesterday

Maximum temperature yesterday: 50 °F (at 5:50 PM)
Minimum temperature yesterday: 45 °F (at 12:50 PM)
Average temperature yesterday: 47 °F

Past Weeks' High & Low Weather Summary

 TemperatureHumidityPressure
High61 °F (Jun 24, 10:50 AM)100% (Jun 23, 12:50 AM)30.24 "Hg (Jun 23, 12:50 AM)
Low39 °F (Jun 19, 11:50 PM)48% (Jul 2, 1:50 PM)29.68 "Hg (Jun 25, 6:50 AM)
Average46 °F80%29.94 "Hg
* Reported Jun 19 11:50 AM — Jul 4 11:50 AM, Hammerfest, Weather by CustomWeather, © 2015

Note: Actual official high and low records may vary slightly from our data, if they occured in-between our weather recording intervals... More about our weather records

Advertising

Hammerfest weather history for previous 24 hours

 ConditionsComfort  
Time TempWeatherWind HumidityBarometerVisibility
11:50 AM
Sat, Jul 4
43 °FDrizzle. Broken clouds.12 mph87%30.09 "HgN/A
10:50 AM45 °FBroken clouds.7 mph81%30.09 "HgN/A
9:50 AM43 °FDrizzle. Broken clouds.7 mph87%30.09 "HgN/A
8:50 AM43 °FDrizzle. Broken clouds.8 mph93%30.07 "Hg4 mi
7:50 AM45 °FDrizzle. Broken clouds.5 mph87%30.07 "Hg5 mi
6:50 AM45 °FDrizzle. Broken clouds.1 mph87%30.07 "HgN/A
5:50 AM45 °FDrizzle. Partly sunny.3 mph87%30.07 "Hg4 mi
4:50 AM45 °FBroken clouds.2 mph81%30.07 "HgN/A
3:50 AM45 °FPartly sunny.1 mph81%30.07 "HgN/A
1:50 AM45 °FBroken clouds.3 mph81%30.07 "HgN/A
12:50 AM45 °FBroken clouds.2 mph81%30.07 "HgN/A
11:50 PM
Fri, Jul 3
45 °FPartly sunny.5 mph81%30.07 "HgN/A
10:50 PM45 °FPassing clouds.3 mph76%30.07 "HgN/A
9:50 PM45 °FSunny.8 mph71%30.07 "Hg10 mi
8:50 PM45 °FPassing clouds.6 mph71%30.09 "HgN/A
7:50 PM46 °FPassing clouds.6 mph66%30.09 "HgN/A
6:50 PM48 °FSunny.7 mph62%30.09 "Hg10 mi
5:50 PM50 °FPassing clouds.5 mph54%30.09 "HgN/A
4:50 PM48 °FScattered clouds.5 mph62%30.09 "HgN/A
3:50 PM48 °FPartly sunny.6 mph58%30.09 "HgN/A
2:50 PM46 °FPartly sunny.5 mph62%30.09 "HgN/A
1:50 PM46 °FPartly sunny.8 mph62%30.07 "HgN/A
Weather by CustomWeather, © 2015

See weather overviewHow to use our weather pages